Location: Drummondville
(45.8830°N, 72.4830°W)
Time: 18:49:41
(UTC-05:00)

OTV 5 (USA 277) - Pass Details

Date: 14 November 2017
Orbit: 404 x 417 km, 43.0° (Epoch: 07 September)

Event Time Altitude Azimuth Distance (km) Brightness Sun altitude
Exits shadow 05:13:27 36° 233° (SW) 662 ? -16.6°
Maximum altitude 05:14:25 51° 180° (S) 513 ? -16.5°
Drops below altitude 10° 05:17:37 10° 104° (ESE) 1,455 ? -15.9°
Sets 05:19:45 0° 99° (E) 2,315 ? -15.5°
